Date,TemperatureHighF,TemperatureAvgF,TemperatureLowF,DewpointHighF,DewpointAvgF,DewpointLowF,HumidityHigh,HumidityAvg,HumidityLow,PressureMaxIn,PressureMinIn,WindSpeedMaxMPH,WindSpeedAvgMPH,GustSpeedMaxMPH,PrecipitationSumIn
2013-4-1,45,36,29,36,18,11,72,50,31,30.02,29.61,24,10,24,0.00
2013-4-2,41,30,24,19,14,11,74,52,32,30.16,30.02,17,6,17,0.00
2013-4-3,46,34,23,18,13,9,64,43,24,30.35,30.16,18,5,18,0.00
2013-4-4,56,40,28,24,18,13,69,44,20,30.29,29.88,13,5,19,0.00
2013-4-5,53,42,32,33,25,18,80,54,27,30.16,29.86,19,6,19,0.00
2013-4-6,50,39,29,28,20,13,62,47,31,30.21,29.75,20,7,20,0.00
2013-4-7,60,54,42,45,36,24,68,51,36,29.97,29.58,28,10,28,0.00
2013-4-8,67,49,35,55,40,29,86,73,56,30.00,29.64,28,7,28,0.13
2013-4-9,53,47,41,45,42,36,90,82,71,30.05,29.82,15,5,15,0.01
2013-4-10,46,43,39,43,40,37,93,91,88,29.92,29.76,22,8,22,0.48
2013-4-11,40,38,36,38,36,34,94,90,84,29.91,29.58,25,10,25,1.53
2013-4-12,44,40,36,40,35,33,92,83,69,29.81,29.45,26,6,26,0.43
2013-4-13,45,41,38,37,32,26,86,71,54,30.02,29.81,21,8,21,0.02
2013-4-14,48,42,38,38,33,28,81,70,62,30.15,29.98,15,4,15,0.01
2013-4-15,62,46,38,53,39,33,84,77,60,30.01,29.93,14,1,14,0.00
2013-4-16,64,57,49,52,46,35,90,68,41,30.25,29.90,18,6,18,0.41
2013-4-17,58,48,41,41,36,32,86,64,49,30.36,30.08,23,11,23,0.18
2013-4-18,81,60,45,64,54,40,91,80,52,30.10,29.63,35,10,35,0.61
2013-4-19,62,48,38,56,40,29,90,75,59,29.79,29.36,30,12,30,0.07
2013-4-20,44,37,33,32,24,18,84,59,44,30.45,29.78,27,10,27,0.00
2013-4-21,49,39,28,29,24,20,76,56,37,30.64,30.45,16,5,16,0.00
2013-4-22,64,49,34,37,31,22,85,56,22,30.50,30.22,15,5,15,0.00
2013-4-23,74,58,44,52,41,32,86,56,33,30.22,29.84,22,7,22,0.13
2013-4-24,56,44,37,52,39,29,90,85,71,30.16,29.72,22,8,22,0.51
2013-4-25,54,44,34,41,33,27,81,67,42,30.36,30.14,25,7,25,0.07
2013-4-26,61,48,33,37,32,24,76,55,31,30.49,30.36,16,5,16,0.00
2013-4-27,72,56,39,43,36,32,78,51,25,30.40,30.12,14,4,14,0.00
2013-4-28,56,52,48,53,45,33,92,78,51,30.12,29.86,16,5,16,0.00
2013-4-29,71,60,54,56,53,50,93,79,57,29.98,29.85,13,4,13,0.00
2013-4-30,72,63,54,56,53,50,89,72,55,30.13,29.98,21,7,21,0.04